Orbital Elements at Epoch 2459200.5 (2020-Dec-17.0) TDB
Reference: JPL 12 (heliocentric ecliptic J2000)
Element | Value | Uncertainty (1-sigma) | Units |
e | .005838596441291232 | 1.253e-06 | |
a | 2.518155311760126 | 2.3719e-08 | au |
q | 2.503452819118265 | 3.162e-06 | au |
i | 4.158268827818808 | 1.2021e-05 | deg |
node | 20.98862420929341 | 8.8748e-05 | deg |
peri | 95.44226307572302 | 0.015157 | deg |
M | 278.7346099275208 | 0.015058 | deg |
tp | 2459529.977164030394 (2021-Nov-11.47716403) | 0.061048 | TDB |
period | 1459.56081605163 4.00 | 2.0622e-05 5.646e-08 | d yr |
n | .2466495373408718 | 3.4849e-09 | deg/d |
Q | 2.532857804401987 | 2.3857e-08 | au |
|
| | Orbit Determination Parameters
Additional Information
|